Voltar ao catálogo

STARLINK-1356

AtivoComunicaçõesVLEO
NORAD 45564·PAYLOAD·🇺🇸 United States

Lançado Apr 22, 2020 de Cape Canaveral Space Force Station

Loading…

Próximas Passagens (próximas 24 horas)

TLE

AtualizadoSource: CelesTrak SupGP

Época: Sep 14, 2026, 21:59 UTC

1 45564C 20025AK  26257.91645833  .00089539  00000+0  59978-3 0  2575
2 45564  53.0381 230.0363 0003227  51.6848 177.1382 15.74528187    17

Acompanhe STARLINK-1356 em tempo real com AllMySat

Download on the App Store